This is the latest recevied weather packets stored in our database for station/object DL4ABR-6. If no packets are shown the sender has not sent any weather packets the latest 10 day(s).
| Time | Temp. | Humidity | Pressure | Rain* | Wind** | Luminosity | Snow |
|---|---|---|---|---|---|---|---|
| 1777853730 | 15° C | 77% | 1007.3 hPa | 0 mm | - | - | - |
| 1777852985 | 15.56° C | 76% | 1007.2 hPa | 0 mm | - | - | - |
| 1777852185 | 15.56° C | 76% | 1007.2 hPa | 0 mm | - | - | - |
| 1777851445 | 15.56° C | 75% | 1007.1 hPa | 0 mm | - | - | - |
| 1777850585 | 16.67° C | 72% | 1007.2 hPa | 0 mm | - | - | - |
| 1777849760 | 16.67° C | 70% | 1007.4 hPa | 0 mm | - | - | - |
| 1777848995 | 16.67° C | 69% | 1007.5 hPa | 0 mm | - | - | - |
| 1777848130 | 16.67° C | 68% | 1007.4 hPa | 0 mm | - | - | - |
| 1777847290 | 17.22° C | 67% | 1007.2 hPa | 0 mm | - | - | - |
| 1777846470 | 17.22° C | 65% | 1007.3 hPa | 0 mm | - | - | - |
| 1777845670 | 17.22° C | 65% | 1007.4 hPa | 0 mm | - | - | - |
| 1777844945 | 17.78° C | 65% | 1007.2 hPa | 0 mm | - | - | - |
| 1777844075 | 17.78° C | 63% | 1007.2 hPa | 0 mm | - | - | - |
| 1777843180 | 18.33° C | 61% | 1007.1 hPa | 0 mm | - | - | - |
| 1777842310 | 18.33° C | 60% | 1007.3 hPa | 0 mm | - | - | - |
| 1777841515 | 18.89° C | 57% | 1007.5 hPa | 0 mm | - | - | - |
| 1777840685 | 18.89° C | 56% | 1007.2 hPa | 0 mm | - | - | - |
| 1777839900 | 19.44° C | 55% | 1006.9 hPa | 0 mm | - | - | - |
| 1777839033 | 19.44° C | 53% | 1007 hPa | 0 mm | - | - | - |
| 1777838150 | 20° C | 51% | 1006.8 hPa | 0 mm | - | - | - |
| 1777837280 | 20° C | 48% | 1006.6 hPa | 0 mm | - | - | - |
| 1777836460 | 20° C | 45% | 1006.4 hPa | 0 mm | - | - | - |
| 1777835605 | 20.56° C | 45% | 1006.5 hPa | 0 mm | - | - | - |
| 1777834725 | 20.56° C | 46% | 1006 hPa | 0 mm | - | - | - |
| 1777834005 | 20.56° C | 46% | 1005.9 hPa | 0 mm | - | - | - |
* Rain since midnight (hover to see other rain measurements)
** Current wind speed in m/s (hover to see current wind gust speed)